Home > Time Zones > World Clock > Weather > Italy > Monza > Past weeks

Flag for Italy Weather past 2 weeks in Monza, Italy

Now
32 °F

Clear.


Feels Like: 26 °F
Forecast: 28 / 39 °F
Wind: 6 mph from Southwest

Location: Milan / Linate

Current Time: Jan 28, 2015 at 2:24:48 AM

Latest Report: Jan 28, 2015 at 1:50 AM


Visibility: 10 mi

Pressure: 30.07 "Hg

Humidity: 93%

Dew point: 30 °F

Location of MonzaLocation

Historic Weather in Monza — Graph

°F

Monza temperature yesterday

Maximum temperature yesterday: 43 °F (at 2:50 PM)
Minimum temperature yesterday: 30 °F (at 7:20 AM)
Average temperature yesterday: 36 °F

Past Weeks' High & Low Weather Summary

 TemperatureHumidityPressure
High55 °F (Jan 17, 2:20 PM)100% (Jan 13, 4:50 AM)30.39 "Hg (Jan 13, 4:50 AM)
Low28 °F (Jan 25, 5:20 AM)28% (Jan 25, 4:20 PM)29.77 "Hg (Jan 23, 4:50 AM)
Average40 °F89%30.00 "Hg
* Reported Jan 13 12:20 AM — Jan 28 12:50 AM, Monza, Weather by CustomWeather, © 2014

Note: Actual official high and low records may vary slightly from our data, if they occured in-between our weather recording intervals... More about our weather records

Advertising

Monza weather history for previous 24 hours

 ConditionsComfort  
Time TempWeatherWind HumidityBarometerVisibility
12:50 AM
Jan 28
32 °FPassing clouds.5 mph93%30.07 "HgN/A
12:20 AM34 °FClear.7 mph93%30.07 "Hg5 mi
11:50 PM
Jan 27
32 °FClear.5 mph100%30.07 "Hg5 mi
11:20 PM32 °FClear.3 mph100%30.07 "Hg5 mi
10:50 PM32 °FClear.3 mph100%30.07 "Hg5 mi
9:50 PM32 °FClear.1 mph100%30.07 "Hg5 mi
9:20 PM34 °FClear.2 mph93%30.07 "Hg10 mi
8:50 PM34 °FClear.6 mph93%30.07 "Hg10 mi
8:20 PM32 °FClear.2 mph100%30.07 "Hg5 mi
7:50 PM34 °FClear.1 mph93%30.04 "Hg5 mi
7:20 PM36 °FClear.1 mph87%30.04 "Hg5 mi
6:50 PM36 °FClear.2 mph87%30.01 "Hg10 mi
6:20 PM37 °FPassing clouds.No wind81%30.01 "HgN/A
5:50 PM39 °FPassing clouds.2 mph75%30.01 "HgN/A
5:20 PM37 °FPassing clouds.5 mph87%29.98 "HgN/A
4:50 PM39 °FPassing clouds.3 mph75%29.98 "HgN/A
4:20 PM41 °FSunny.3 mph70%29.98 "Hg10 mi
3:50 PM43 °FSunny.No wind66%29.98 "Hg10 mi
3:20 PM41 °FSunny.2 mph76%29.98 "Hg10 mi
2:50 PM43 °FSunny.2 mph71%29.98 "Hg10 mi
2:20 PM41 °FSunny.1 mph81%29.98 "Hg10 mi
1:50 PM41 °FSunny.1 mph76%29.98 "Hg10 mi
1:20 PM41 °FPassing clouds.5 mph76%29.98 "HgN/A
12:50 PM39 °FClear.3 mph81%30.01 "Hg5 mi
12:20 PM39 °FClear.5 mph81%30.01 "Hg5 mi
11:50 AM39 °FClear.1 mph75%30.01 "Hg4 mi
11:20 AM39 °FClear.3 mph81%30.01 "Hg4 mi
10:50 AM37 °FClear.2 mph93%30.01 "Hg4 mi
10:20 AM37 °FClear.1 mph93%30.01 "Hg4 mi
9:50 AM37 °FSunny.2 mph93%30.01 "Hg10 mi
9:20 AM36 °FSunny.No wind100%30.01 "Hg10 mi
8:50 AM32 °FFog.3 mph100%30.01 "Hg5 mi
8:20 AM32 °FFog.1 mph100%30.01 "Hg3 mi
7:50 AM32 °FIce fog.2 mph100%30.01 "Hg3 mi
7:20 AM30 °FClear.2 mph100%30.01 "Hg5 mi
6:50 AM32 °FClear.No wind100%30.01 "Hg5 mi
6:20 AM34 °FClear.3 mph100%30.01 "Hg5 mi
5:50 AM32 °FClear.2 mph100%30.01 "Hg10 mi
4:50 AM34 °FClear.1 mph100%30.04 "Hg10 mi
4:20 AM34 °FClear.No wind100%30.04 "Hg10 mi
3:50 AM34 °FClear.1 mph100%30.07 "Hg10 mi
3:20 AM34 °FClear.2 mph93%30.07 "Hg10 mi
2:50 AM34 °FClear.2 mph100%30.07 "Hg10 mi
2:20 AM32 °FClear.1 mph100%30.07 "Hg10 mi
Weather by CustomWeather, © 2014

See weather overviewHow to use our weather pages